DW5657 Weather Reports


Display with metric or nautical units.
time (UTC)temp
F
wind
direction
speed
MPH
gust
MPH
rain 1hr
in
rain 24hr
in
rain mn
in
humidity
%
barometer
mb
20260902221704 96 199 2.0 6.0 0.00 0.00 0.00 52 1014.2
20260902220705 96 293 2.0 5.0 0.00 0.00 0.00 52 1014.2
20260902220204 96 258 3.0 6.0 0.00 0.00 0.00 52 1014.3
20260902215704 96 215 1.0 5.0 0.00 0.00 0.00 52 1014.2
20260902215204 96 244 2.0 7.0 0.00 0.00 0.00 52 1014.3
20260902214704 96 219 3.0 7.0 0.00 0.00 0.00 52 1014.3
20260902214204 96 271 2.0 6.0 0.00 0.00 0.00 52 1014.3
20260902213704 97 202 1.0 6.0 0.00 0.00 0.00 52 1014.2
20260902213204 96 223 3.0 7.0 0.00 0.00 0.00 51 1014.3
20260902212703 96 231 2.0 7.0 0.00 0.00 0.00 51 1014.3
20260902212205 96 228 0.0 2.0 0.00 0.00 0.00 52 1014.3
20260902211704 96 222 1.0 6.0 0.00 0.00 0.00 52 1014.3
20260902211204 96 210 4.0 9.0 0.00 0.00 0.00 51 1014.4
20260902210703 96 214 3.0 10.0 0.00 0.00 0.00 51 1014.4
20260902210204 96 211 1.0 5.0 0.00 0.00 0.00 53 1014.4
20260902205703 96 278 2.0 7.0 0.00 0.00 0.00 53 1014.5
20260902205204 96 210 3.0 6.0 0.00 0.00 0.00 52 1014.5
20260902204704 96 234 3.0 8.0 0.00 0.00 0.00 51 1014.5
20260902204205 96 206 1.0 8.0 0.00 0.00 0.00 52 1014.5
20260902203204 95 205 3.0 10.0 0.00 0.00 0.00 52 1014.6
20260902202705 95 217 3.0 10.0 0.00 0.00 0.00 52 1014.6
20260902202204 95 185 3.0 7.0 0.00 0.00 0.00 52 1014.6
20260902201204 95 212 3.0 7.0 0.00 0.00 0.00 53 1014.6
20260902200703 95 210 1.0 7.0 0.00 0.00 0.00 53 1014.6
20260902200204 95 214 2.0 3.0 0.00 0.00 0.00 52 1014.7
20260902195704 95 231 2.0 7.0 0.00 0.00 0.00 53 1014.8
20260902195204 94 209 2.0 7.0 0.00 0.00 0.00 54 1014.8
20260902194704 94 212 2.0 7.0 0.00 0.00 0.00 53 1014.9
20260902194204 94 233 5.0 8.0 0.00 0.00 0.00 53 1014.9
20260902193704 94 214 3.0 8.0 0.00 0.00 0.00 54 1015.0
20260902192703 94 202 1.0 6.0 0.00 0.00 0.00 55 1015.1
20260902192205 94 223 2.0 9.0 0.00 0.00 0.00 53 1015.3
20260902191704 93 266 3.0 6.0 0.00 0.00 0.00 55 1015.3
20260902191204 93 230 0.0 5.0 0.00 0.00 0.00 55 1015.3
20260902190704 93 220 1.0 5.0 0.00 0.00 0.00 55 1015.4
20260902190204 93 218 1.0 3.0 0.00 0.00 0.00 54 1015.5
20260902185705 93 225 1.0 7.0 0.00 0.00 0.00 53 1015.5
20260902185205 93 226 3.0 7.0 0.00 0.00 0.00 53 1015.5
20260902184704 93 277 1.0 3.0 0.00 0.00 0.00 55 1015.5
20260902184204 93 244 0.0 2.0 0.00 0.00 0.00 55 1015.6
20260902183204 93 211 2.0 8.0 0.00 0.00 0.00 55 1015.6
20260902182702 93 214 2.0 6.0 0.00 0.00 0.00 54 1015.6
20260902182203 93 243 1.0 3.0 0.00 0.00 0.00 57 1015.7
20260902181203 93 321 1.0 5.0 0.00 0.00 0.00 57 1015.7
20260902180703 94 219 3.0 6.0 0.00 0.00 0.00 57 1015.8
20260902180202 94 221 3.0 5.0 0.00 0.00 0.00 58 1015.9
20260902175703 94 327 1.0 6.0 0.00 0.00 0.00 57 1016.0
20260902175203 94 211 3.0 6.0 0.00 0.00 0.00 56 1016.0
20260902174703 94 252 1.0 6.0 0.00 0.00 0.00 58 1016.0
20260902174202 93 213 2.0 5.0 0.00 0.00 0.00 57 1016.1
20260902173703 94 251 2.0 8.0 0.00 0.00 0.00 56 1016.2
20260902173203 94 261 3.0 9.0 0.00 0.00 0.00 55 1016.2
20260902172203 94 228 3.0 7.0 0.00 0.00 0.00 54 1016.3
20260902171703 94 205 3.0 7.0 0.00 0.00 0.00 55 1016.3
20260902171203 94 203 2.0 3.0 0.00 0.00 0.00 55 1016.3
20260902170704 93 215 2.0 9.0 0.00 0.00 0.00 55 1016.3
20260902170203 93 257 2.0 9.0 0.00 0.00 0.00 56 1016.3
20260902165703 93 310 2.0 6.0 0.00 0.00 0.00 56 1016.4
20260902165202 93 165 4.0 10.0 0.00 0.00 0.00 55 1016.4
20260902164703 93 221 4.0 8.0 0.00 0.00 0.00 55 1016.5
20260902163703 93 217 2.0 6.0 0.00 0.00 0.00 57 1016.5
20260902163203 92 169 3.0 9.0 0.00 0.00 0.00 58 1016.5
20260902162702 92 215 2.0 5.0 0.00 0.00 0.00 58 1016.5
20260902162203 92 266 4.0 7.0 0.00 0.00 0.00 58 1016.5
20260902161703 92 195 2.0 7.0 0.00 0.00 0.00 60 1016.5
20260902161205 92 220 2.0 8.0 0.00 0.00 0.00 59 1016.6
20260902160703 91 218 2.0 7.0 0.00 0.00 0.00 59 1016.6
20260902160203 91 216 3.0 8.0 0.00 0.00 0.00 60 1016.7
20260902155704 91 232 3.0 8.0 0.00 0.00 0.00 60 1016.8
20260902155203 91 201 4.0 8.0 0.00 0.00 0.00 61 1016.8
20260902154703 91 214 1.0 6.0 0.00 0.00 0.00 62 1016.8
20260902154203 90 201 1.0 6.0 0.00 0.00 0.00 63 1016.9
20260902153703 90 239 3.0 7.0 0.00 0.00 0.00 63 1017.0
20260902152203 90 210 2.0 8.0 0.00 0.00 0.00 63 1016.9
20260902151703 89 224 2.0 5.0 0.00 0.00 0.00 64 1017.0
20260902151204 89 237 1.0 7.0 0.00 0.00 0.00 64 1017.0
20260902150703 89 232 3.0 7.0 0.00 0.00 0.00 64 1017.1
20260902145703 88 293 1.0 5.0 0.00 0.00 0.00 65 1017.0
20260902145204 88 221 1.0 5.0 0.00 0.00 0.00 67 1016.9
20260902144704 87 232 3.0 7.0 0.00 0.00 0.00 66 1017.0
20260902144203 87 212 2.0 6.0 0.00 0.00 0.00 67 1017.0
20260902143703 87 283 1.0 3.0 0.00 0.00 0.00 68 1017.0
20260902143203 86 253 1.0 3.0 0.00 0.00 0.00 69 1017.0
20260902142705 86 236 2.0 7.0 0.00 0.00 0.00 69 1017.0
20260902142203 86 247 4.0 8.0 0.00 0.00 0.00 69 1016.9
20260902141703 85 212 1.0 8.0 0.00 0.00 0.00 70 1016.9
20260902140704 85 214 1.0 6.0 0.00 0.00 0.00 73 1017.0
20260902134704 83 221 2.0 5.0 0.00 0.00 0.00 73 1017.0
20260902134203 83 224 5.0 6.0 0.00 0.00 0.00 74 1017.0
20260902133704 83 235 2.0 3.0 0.00 0.00 0.00 74 1016.9
20260902133203 82 222 3.0 7.0 0.00 0.00 0.00 75 1017.0
20260902132703 82 228 1.0 6.0 0.00 0.00 0.00 75 1016.9
20260902132203 82 216 2.0 6.0 0.00 0.00 0.00 76 1016.9
20260902131704 81 213 0.0 5.0 0.00 0.00 0.00 76 1016.9
20260902131203 81 219 1.0 5.0 0.00 0.00 0.00 77 1016.9
20260902130703 81 224 1.0 5.0 0.00 0.00 0.00 77 1016.9
20260902130203 81 218 0.0 3.0 0.00 0.00 0.00 77 1016.9
20260902125703 80 234 1.0 5.0 0.00 0.00 0.00 77 1016.9
20260902125203 80 219 0.0 2.0 0.00 0.00 0.00 78 1016.9
20260902124703 80 219 2.0 5.0 0.00 0.00 0.00 78 1016.8
20260902124203 79 218 1.0 5.0 0.00 0.00 0.00 79 1016.8
20260902123703 79 216 1.0 2.0 0.00 0.00 0.00 79 1016.7
20260902123203 79 236 0.0 3.0 0.00 0.00 0.00 80 1016.7
20260902122703 78 198 1.0 5.0 0.00 0.00 0.00 80 1016.7
20260902122204 78 222 1.0 5.0 0.00 0.00 0.00 81 1016.7
20260902121703 78 62 2.0 5.0 0.00 0.00 0.00 81 1016.6
20260902120203 77 46 1.0 6.0 0.00 0.00 0.00 83 1016.6
20260902115703 76 43 1.0 3.0 0.00 0.00 0.00 83 1016.6
20260902115204 76 40 0.0 3.0 0.00 0.00 0.00 83 1016.5
20260902114704 76 38 0.0 2.0 0.00 0.00 0.00 83 1016.4
20260902114203 76 38 0.0 1.0 0.00 0.00 0.00 84 1016.4
20260902113703 76 44 0.0 1.0 0.00 0.00 0.00 84 1016.3
20260902112704 76 50 0.0 0.0 0.00 0.00 0.00 84 1016.2
20260902112203 76 51 0.0 0.0 0.00 0.00 0.00 84 1016.2
20260902111703 76 53 0.0 0.0 0.00 0.00 0.00 84 1016.1
20260902111203 76 53 0.0 0.0 0.00 0.00 0.00 84 1016.1
20260902110703 76 53 0.0 0.0 0.00 0.00 0.00 84 1016.1
20260902110203 76 53 0.0 0.0 0.00 0.00 0.00 83 1016.1
20260902105703 76 51 0.0 0.0 0.00 0.00 0.00 83 1016.1
20260902105203 76 51 0.0 0.0 0.00 0.00 0.00 83 1016.2
20260902104704 76 51 0.0 0.0 0.00 0.00 0.00 83 1016.2
20260902104204 76 50 0.0 0.0 0.00 0.00 0.00 83 1016.1
20260902103703 76 48 0.0 0.0 0.00 0.00 0.00 83 1016.2
20260902103203 76 47 0.0 0.0 0.00 0.00 0.00 83 1016.2
20260902102703 76 48 0.0 0.0 0.00 0.00 0.00 83 1016.1
20260902102203 76 48 0.0 0.0 0.00 0.00 0.00 83 1016.1
20260902101703 77 48 0.0 0.0 0.00 0.00 0.00 82 1016.0
20260902101203 77 49 0.0 0.0 0.00 0.00 0.00 82 1016.1
20260902100703 77 49 0.0 0.0 0.00 0.00 0.00 82 1016.1
20260902100203 77 48 0.0 0.0 0.00 0.00 0.00 82 1016.0
20260902095703 77 47 0.0 0.0 0.00 0.00 0.00 82 1016.0
20260902095204 77 47 0.0 0.0 0.00 0.00 0.00 82 1016.0
20260902094705 77 47 0.0 0.0 0.00 0.00 0.00 81 1016.0
20260902094203 77 46 0.0 0.0 0.00 0.00 0.00 81 1016.0
20260902093703 77 46 0.0 0.0 0.00 0.00 0.00 81 1016.0
20260902093203 77 46 0.0 0.0 0.00 0.00 0.00 81 1016.0
20260902092203 77 44 0.0 0.0 0.00 0.00 0.00 81 1016.0
20260902091703 77 44 0.0 0.0 0.00 0.00 0.00 81 1016.0
20260902091204 77 43 0.0 0.0 0.00 0.00 0.00 81 1015.9
20260902090704 77 43 0.0 0.0 0.00 0.00 0.00 81 1015.8
20260902090203 77 44 0.0 0.0 0.00 0.00 0.00 81 1015.8
20260902085204 77 44 0.0 0.0 0.00 0.00 0.00 81 1015.7
20260902084704 77 44 0.0 0.0 0.00 0.00 0.00 81 1015.7
20260902084203 77 44 0.0 0.0 0.00 0.00 0.00 80 1015.5
20260902083703 77 44 0.0 0.0 0.00 0.00 0.00 80 1015.4
20260902083204 77 44 0.0 0.0 0.00 0.00 0.00 80 1015.4
20260902082703 77 44 0.0 0.0 0.00 0.00 0.00 79 1015.4
20260902082203 77 44 0.0 0.0 0.00 0.00 0.00 79 1015.4
20260902081203 78 43 0.0 0.0 0.00 0.00 0.00 79 1015.3
20260902080704 78 43 0.0 0.0 0.00 0.00 0.00 79 1015.3
20260902080203 78 44 0.0 0.0 0.00 0.00 0.00 79 1015.3
20260902075703 78 45 0.0 0.0 0.00 0.00 0.00 79 1015.3
20260902075203 78 48 0.0 0.0 0.00 0.00 0.00 79 1015.3
20260902074704 78 48 0.0 0.0 0.00 0.00 0.00 78 1015.3
20260902074204 78 47 0.0 0.0 0.00 0.00 0.00 78 1015.3
20260902073704 79 48 0.0 0.0 0.00 0.00 0.00 78 1015.3
20260902073203 79 46 0.0 0.0 0.00 0.00 0.00 78 1015.3
20260902072203 79 41 0.0 0.0 0.00 0.00 0.00 77 1015.2
20260902071703 79 42 0.0 0.0 0.00 0.00 0.00 77 1015.3
20260902071203 80 45 0.0 0.0 0.00 0.00 0.00 77 1015.3
20260902070704 80 52 0.0 0.0 0.00 0.00 0.00 77 1015.3
20260902070203 80 56 0.0 0.0 0.00 0.00 0.00 77 1015.3
20260902065704 80 72 0.0 0.0 0.00 0.00 0.00 77 1015.2
20260902065204 80 62 0.0 0.0 0.00 0.00 0.00 77 1015.3
20260902064203 80 20 0.0 0.0 0.00 0.00 0.00 77 1015.2
20260902063704 80 41 0.0 0.0 0.00 0.00 0.00 76 1015.1
20260902063203 80 41 0.0 0.0 0.00 0.00 0.00 76 1015.2
20260902062704 80 55 0.0 0.0 0.00 0.00 0.00 76 1015.2
20260902062203 80 50 0.0 0.0 0.00 0.00 0.00 76 1015.2
20260902061704 80 47 0.0 0.0 0.00 0.00 0.00 76 1015.3
20260902061203 80 48 0.0 0.0 0.00 0.00 0.00 76 1015.2
20260902060703 80 45 0.0 0.0 0.00 0.00 0.00 76 1015.2
20260902060204 81 48 0.0 0.0 0.00 0.00 0.00 76 1015.2
20260902055704 80 52 0.0 0.0 0.00 0.00 0.00 76 1015.3
20260902054203 81 44 0.0 0.0 0.00 0.00 0.00 75 1015.3
20260902053704 81 44 0.0 0.0 0.00 0.00 0.00 75 1015.3
20260902051703 81 199 0.0 0.0 0.00 0.00 0.00 75 1015.3
20260902051203 81 203 0.0 0.0 0.00 0.00 0.00 75 1015.4
20260902050703 81 204 0.0 0.0 0.00 0.00 0.00 74 1015.3
20260902045204 82 204 0.0 0.0 0.00 0.00 0.00 74 1015.3
20260902044704 82 204 0.0 0.0 0.00 0.00 0.00 74 1015.3
20260902044203 82 204 0.0 0.0 0.00 0.00 0.00 74 1015.4
20260902043704 82 204 0.0 0.0 0.00 0.00 0.00 73 1015.3
20260902042704 82 204 0.0 0.0 0.00 0.00 0.00 73 1015.3
20260902042204 82 204 0.0 0.0 0.00 0.00 0.00 73 1015.3
20260902041702 82 204 0.0 0.0 0.00 0.00 0.00 73 1015.3
20260902040704 82 198 0.0 0.0 0.00 0.00 0.00 72 1015.3
20260902040204 82 202 0.0 0.0 0.00 0.00 0.00 72 1015.4
20260902035704 82 203 0.0 0.0 0.00 0.00 0.00 72 1015.4
20260902034703 83 204 0.0 0.0 0.00 0.00 0.00 72 1015.4
20260902033704 83 204 0.0 0.0 0.00 0.00 0.00 71 1015.4
20260902033203 83 204 0.0 0.0 0.00 0.00 0.00 71 1015.4
20260902032203 84 204 0.0 0.0 0.00 0.00 0.00 70 1015.3
20260902031703 84 204 0.0 0.0 0.00 0.00 0.00 70 1015.3
20260902031203 84 204 0.0 0.0 0.00 0.00 0.00 69 1015.3
20260902030704 84 47 0.0 0.0 0.00 0.00 0.00 70 1015.3
20260902025703 84 50 0.0 0.0 0.00 0.00 0.00 69 1015.3
20260902024704 84 46 0.0 0.0 0.00 0.00 0.00 69 1015.3
20260902024205 84 44 0.0 0.0 0.00 0.00 0.00 70 1015.3
20260902023704 84 44 0.0 2.0 0.00 0.00 0.00 69 1015.3
20260902022704 84 58 0.0 0.0 0.00 0.00 0.00 69 1015.2
20260902022203 84 66 0.0 0.0 0.00 0.00 0.00 69 1015.2
20260902021703 84 62 0.0 0.0 0.00 0.00 0.00 69 1015.2
20260902021203 85 62 0.0 0.0 0.00 0.00 0.00 69 1015.2
20260902020703 85 58 0.0 0.0 0.00 0.00 0.00 69 1015.2
20260902020204 85 60 0.0 0.0 0.00 0.00 0.00 68 1015.3
20260902015703 85 61 0.0 0.0 0.00 0.00 0.00 68 1015.3
20260902014703 85 55 0.0 0.0 0.00 0.00 0.00 67 1015.3
20260902014203 85 54 0.0 0.0 0.00 0.00 0.00 67 1015.2
20260902013704 86 55 0.0 0.0 0.00 0.00 0.00 66 1015.3
20260902012703 86 59 0.0 0.0 0.00 0.00 0.00 66 1015.2
20260902012203 86 62 0.0 0.0 0.00 0.00 0.00 66 1015.1
20260902011703 86 68 0.0 0.0 0.00 0.00 0.00 65 1015.0
20260902011205 87 66 0.0 0.0 0.00 0.00 0.00 64 1015.0
20260902010203 87 64 0.0 0.0 0.00 0.00 0.00 63 1014.9
20260902005703 87 65 0.0 0.0 0.00 0.00 0.00 63 1014.8
20260902005203 88 81 0.0 0.0 0.00 0.00 0.00 62 1014.9
20260902004703 88 74 0.0 0.0 0.00 0.00 0.00 62 1014.8
20260902003703 89 93 0.0 0.0 0.00 0.00 0.00 61 1014.8
20260902003203 89 93 0.0 0.0 0.00 0.00 0.00 60 1014.7
20260902002704 89 102 0.0 0.0 0.00 0.00 0.00 59 1014.7
20260902001703 90 96 0.0 0.0 0.00 0.00 0.00 58 1014.8
20260902001203 90 97 0.0 0.0 0.00 0.00 0.00 57 1014.9
20260902000703 90 215 0.0 0.0 0.00 0.00 0.00 57 1014.9
20260902000204 91 215 0.0 0.0 0.00 0.00 0.00 56 1014.9
20260901235203 91 215 0.0 0.0 0.00 0.00 0.00 55 1014.9
20260901234703 91 215 0.0 0.0 0.00 0.00 0.00 55 1014.9
20260901234203 92 215 0.0 2.0 0.00 0.00 0.00 54 1014.9
20260901233704 92 216 1.0 3.0 0.00 0.00 0.00 53 1015.0
20260901233203 92 217 1.0 3.0 0.00 0.00 0.00 54 1015.0
20260901232703 92 213 0.0 3.0 0.00 0.00 0.00 54 1015.0
20260901232204 92 209 0.0 3.0 0.00 0.00 0.00 54 1015.1
20260901231705 93 219 0.0 3.0 0.00 0.00 0.00 54 1015.0
20260901231202 93 215 0.0 1.0 0.00 0.00 0.00 53 1015.0
20260901230204 93 237 0.0 2.0 0.00 0.00 0.00 53 1015.1
20260901225205 94 218 1.0 3.0 0.00 0.00 0.00 51 1015.0
20260901224703 95 224 1.0 3.0 0.00 0.00 0.00 51 1015.0
20260901224204 95 234 2.0 5.0 0.00 0.00 0.00 50 1015.0
20260901223704 95 222 1.0 5.0 0.00 0.00 0.00 50 1015.0
20260901223203 96 223 2.0 5.0 0.00 0.00 0.00 50 1014.9
20260901222703 96 224 2.0 5.0 0.00 0.00 0.00 50 1014.9
20260901222203 96 243 1.0 3.0 0.00 0.00 0.00 49 1014.9